Location: ?????
(37.7324°N, 23.9257°E)
Time: 07:27:15
(UTC+00:00)

Cosmos 1151 Rocket - Pass Details

Date: 29 November 2020
Orbit: 593 x 615 km, 82.5° (Epoch: 17 January)

Event Time Altitude Azimuth Distance (km) Brightness Sun altitude
Exits shadow 04:17:03 18° 294° (WNW) 1,494 4.4 -12.2°
Maximum altitude 04:18:15 20° 272° (W) 1,402 4.3 -11.9°
Drops below altitude 10° 04:21:21 10° 225° (SW) 1,933 5.3 -11.4°
Sets 04:24:01 0° 208° (SSW) 2,834 6.4 -10.9°
